Location: Newark
(25.0000°N, 73.5000°E)
Time: 23:35:19
(UTC+00:00)

STARLINK-2657 - Pass Details

Date: 16 June 2021
Orbit: 545 x 549 km, 53.1° (Epoch: 03 August)

Event Time Altitude Azimuth Distance (km) Brightness Sun altitude
Exits shadow 22:09:24 - 134° (SE) 1,980 6.5 -24.5°
Enters shadow 23:10:03 -71° 225° (SW) 12,599 10.4 -13.8°
Maximum altitude 23:49:30 67° 310° (NW) 594 3.7 -6.2°
